Mason City, IA

8:24 AM CDT on April 22, 2018 (GMT -0500)
Mason City Municipal

Weather History for KMCW - February, 2011

Change the Weather History Date:

Friday, February 11, 2011

  Actual Average Record
Temperature  
Mean Temperature 18 °F 19 °F  
Max Temperature 34 °F 28 °F 58 °F (1977)
Min Temperature 2 °F 10 °F -32 °F (1899)
Degree Days  
Heating Degree Days 47 46  
Month to date heating degree days 610 518  
Since 1 July heating degree days 5298 5129  
Cooling Degree Days 0 0  
Month to date cooling degree days 0 0  
Year to date cooling degree days 0 0  
Moisture  
Dew Point 22 °F    
Average Humidity 87    
Maximum Humidity 96    
Minimum Humidity 78    
Precipitation  
Precipitation T in 0.03 in 0.40 in (1965)
Month to date precipitation 0.17 0.35  
Year to date precipitation 1.23 1.17  
Snow  
Snow 0.00 in 0.30 in 6.80 in (1965)
Month to date snowfall 1.6 3.5  
Since 1 July snowfall 43.9 28.3  
Snow Depth -    
Sea Level Pressure  
Sea Level Pressure 29.89 in    
Wind  
Wind Speed 11 mph (WSW)    
Max Wind Speed 21 mph    
Max Gust Speed 25 mph    
Visibility 8 miles    
Events Snow    
T = Trace of Precipitation, MM = Missing Value Source: NWS Daily Summary

Daily Weather History Graph

Daily Weather History Graph

Search for Another Location

Airport or City:

Astronomy

Feb. 11, 2011 Rise Set
Actual Time 7:16 AM CST 5:38 PM CST
Civil Twilight 6:47 AM CST 6:08 PM CST
Nautical Twilight 6:13 AM CST 6:41 PM CST
Astronomical Twilight 5:40 AM CST 7:14 PM CST
Moon 10:54 AM CST (2/11) 1:31 AM CST (2/11)
Length of Visible Light 11h 20m
Length of Day
10h 21m
First Quarter, 54% of the Moon is Illuminated
Feb 11
First Quarter
Feb 18
Full
Feb 24
Last Quarter
Mar 4
New
Mar 12
First Quarter

Hourly Weather History & Observations

Time (CST) Temp. Windchill Dew Point Humidity Pressure Visibility Wind Dir Wind Speed Gust Speed Precip Events Conditions
12:53 AM 5.0 °F -4.1 °F 1.9 °F 87% 29.96 in 10.0 mi South 4.6 mph - N/A   Overcast
1:53 AM 7.0 °F -3.3 °F 3.9 °F 87% 29.94 in 10.0 mi South 5.8 mph - N/A   Overcast
2:53 AM 9.0 °F 2.4 °F 5.0 °F 84% 29.94 in 10.0 mi South 3.5 mph - N/A   Overcast
3:53 AM 10.9 °F 2.9 °F 7.0 °F 84% 29.92 in 9.0 mi South 4.6 mph - 0.00 in   Overcast
4:22 AM 10.4 °F 0.8 °F 8.6 °F 92% 29.85 in 8.0 mi South 5.8 mph - N/A   Overcast
4:53 AM 12.9 °F 6.9 °F 10.0 °F 88% 29.91 in 7.0 mi South 3.5 mph - 0.00 in   Overcast
5:31 AM 12.2 °F - 10.4 °F 92% 29.85 in 8.0 mi Calm Calm - N/A   Overcast
5:39 AM 14.0 °F - 10.4 °F 86% 29.86 in 7.0 mi Calm Calm - N/A   Overcast
5:53 AM 14.0 °F 6.5 °F 12.0 °F 92% 29.92 in 6.0 mi SSE 4.6 mph - N/A   Overcast
6:53 AM 19.0 °F 9.0 °F 15.1 °F 85% 29.91 in 9.0 mi WSW 8.1 mph - N/A   Overcast
7:34 AM 19.4 °F 9.5 °F 15.8 °F 86% 29.85 in 8.0 mi WSW 8.1 mph - N/A   Overcast
7:53 AM 19.9 °F 10.1 °F 17.1 °F 89% 29.90 in 9.0 mi SSW 8.1 mph - N/A   Overcast
8:53 AM 21.0 °F 12.4 °F 18.0 °F 88% 29.91 in 10.0 mi WSW 6.9 mph - N/A   Scattered Clouds
9:53 AM 24.1 °F 15.2 °F 21.0 °F 88% 29.91 in 10.0 mi West 8.1 mph - N/A   Overcast
10:53 AM 28.0 °F 18.6 °F 23.0 °F 81% 29.91 in 10.0 mi WSW 10.4 mph - N/A   Overcast
11:24 AM 28.4 °F 20.4 °F 24.8 °F 86% 29.85 in 10.0 mi WSW 8.1 mph - N/A   Overcast
11:53 AM 28.9 °F 19.2 °F 25.0 °F 85% 29.89 in 10.0 mi WSW 11.5 mph - N/A   Overcast
12:13 PM 30.2 °F 19.3 °F 24.8 °F 80% 29.83 in 10.0 mi WSW 15.0 mph - N/A   Mostly Cloudy
12:53 PM 30.9 °F 19.4 °F 26.1 °F 82% 29.87 in 10.0 mi WSW 17.3 mph - N/A   Overcast
1:53 PM 30.9 °F 20.7 °F 27.0 °F 85% 29.86 in 10.0 mi WSW 13.8 mph - N/A   Overcast
2:14 PM 30.2 °F 19.8 °F 26.6 °F 86% 29.81 in 10.0 mi WSW 13.8 mph - N/A   Overcast
2:53 PM 32.0 °F 20.8 °F 28.9 °F 88% 29.86 in 4.0 mi West 17.3 mph - 0.00 in Snow Light Snow
2:57 PM 32.0 °F 21.2 °F 28.4 °F 87% 29.81 in 1.5 mi West 16.1 mph - 0.00 in Snow Light Snow
3:05 PM 32.0 °F 21.6 °F 30.2 °F 93% 29.81 in 1.2 mi West 15.0 mph - 0.00 in Snow Light Snow
3:10 PM 32.0 °F 20.8 °F 30.2 °F 93% 29.81 in 3.0 mi West 17.3 mph - 0.00 in Snow Light Snow
3:31 PM 33.8 °F 22.5 °F 30.2 °F 87% 29.82 in 2.0 mi West 19.6 mph - 0.00 in Snow Light Snow
3:44 PM 33.8 °F 22.8 °F 30.2 °F 87% 29.83 in 4.0 mi West 18.4 mph - 0.00 in Snow Light Snow
3:51 PM 33.8 °F 23.5 °F 30.2 °F 87% 29.83 in 5.0 mi West 16.1 mph - 0.00 in Snow Light Snow
3:53 PM 33.1 °F 22.2 °F 30.0 °F 89% 29.88 in 6.0 mi West 17.3 mph - 0.00 in   Overcast
4:53 PM 33.1 °F 22.2 °F 30.0 °F 89% 29.90 in 10.0 mi WNW 17.3 mph - N/A   Overcast
5:08 PM 33.8 °F 23.5 °F 30.2 °F 87% 29.86 in 10.0 mi WNW 16.1 mph - N/A   Overcast
5:28 PM 33.8 °F 23.9 °F 28.4 °F 81% 29.86 in 10.0 mi WNW 15.0 mph - N/A   Overcast
5:53 PM 33.1 °F 23.4 °F 28.9 °F 85% 29.91 in 10.0 mi West 13.8 mph - N/A   Overcast
6:53 PM 33.1 °F 23.0 °F 28.9 °F 85% 29.93 in 10.0 mi West 15.0 mph - N/A   Overcast
7:53 PM 30.9 °F 20.2 °F 27.0 °F 85% 29.95 in 10.0 mi WNW 15.0 mph - N/A   Clear
8:53 PM 28.9 °F 17.3 °F 25.0 °F 85% 29.97 in 10.0 mi WNW 16.1 mph - N/A   Clear
9:53 PM 27.0 °F 14.3 °F 23.0 °F 85% 29.99 in 10.0 mi WNW 17.3 mph - N/A   Clear
10:53 PM 27.0 °F 14.3 °F 23.0 °F 85% 30.01 in 10.0 mi West 17.3 mph - N/A   Clear
11:53 PM 26.1 °F 13.6 °F 23.0 °F 88% 30.03 in 10.0 mi West 16.1 mph - N/A   Clear